Accueil
METAR-TAF:

METAR-TAF

Aéroports :

Dansville Municipal Airport

Dansville, New York, États-Unis

latitude: 42-34-10N, longitude: 077-42-52W, altitude: 201 m

Observation

Le bulletin a été fait il y a 39 minutes, à 07:54 UTC
Vent 7 kt de sud/sud-est
Température 11°C
Humidité 87%
Pression 1015 hPa
Visibilité: 16.1 km
Ciel clair

METAR: KDSV 210754Z AUTO 15007KT 10SM CLR 11/09 A2998 RMK AO2 SLP160 T01110089

Heure: 04:33 (08:33 UTC)


TAF: absent

Observations et prévisions météorologiques de plus de 4000 aéroports (messages METAR et TAF).

Les stations disponibles sont représentées par des disques jaunes et rouges sur la carte.

Passer la souris dessus pour voir le nom de la station.

Cliquer dessus pour voir les observations et prévisions météorologiques.

Pour changer de carte: cliquez sur les boutons verts avec une croix noire pour zoomer, sur le bouton vert avec un tiret pour effectuer un zoom arrière, ou sur les flèches vertes pour les cartes adjacentes.


METAR-TAF: